| time (UTC) | temp C | wind direction | speed KPH | gust KPH | rain 1hr cm | rain 24hr cm | rain mn cm | humidity % | barometer mb |
| 20260507035213 | 2 | 248 | 0.0 | 1.6 | 0.00 | 0.00 | 0.00 | 75 | 1016.4 |
| 20260507034511 | 2 | 248 | 0.0 | 3.2 | 0.00 | 0.00 | 0.00 | 76 | 1016.3 |
| 20260507033809 | 1 | 248 | 0.0 | 0.0 | 0.00 | 0.00 | 0.00 | 77 | 1016.2 |
| 20260507033106 | 1 | 248 | 0.0 | 0.0 | 0.00 | 0.00 | 0.00 | 79 | 1016.2 |
| 20260507032405 | 0 | 248 | 0.0 | 3.2 | 0.00 | 0.00 | 0.00 | 79 | 1016.2 |
| 20260507031704 | 0 | 248 | 0.0 | 1.6 | 0.00 | 0.00 | 0.00 | 79 | 1016.1 |
| 20260507031002 | -1 | 248 | 0.0 | 0.0 | 0.00 | 0.00 | 0.00 | 79 | 1016.0 |
| 20260507030312 | -1 | 248 | 0.0 | 0.0 | 0.00 | 0.00 | 0.00 | 79 | 1016.0 |
| 20260507025610 | -1 | 248 | 0.0 | 0.0 | 0.00 | 0.00 | 0.00 | 78 | 1015.9 |
| 20260507024909 | -1 | 248 | 0.0 | 0.0 | 0.00 | 0.00 | 0.00 | 78 | 1015.9 |
| 20260507024208 | -1 | 248 | 0.0 | 0.0 | 0.00 | 0.00 | 0.00 | 78 | 1015.8 |
| 20260507023506 | -1 | 248 | 0.0 | 0.0 | 0.00 | 0.00 | 0.00 | 77 | 1015.8 |
| 20260507022804 | -2 | 248 | 0.0 | 0.0 | 0.00 | 0.00 | 0.00 | 77 | 1015.8 |
| 20260507022102 | -2 | 248 | 0.0 | 0.0 | 0.00 | 0.00 | 0.00 | 77 | 1015.9 |
| 20260507021412 | -2 | 248 | 0.0 | 0.0 | 0.00 | 0.00 | 0.00 | 77 | 1015.9 |
| 20260507020710 | -2 | 248 | 0.0 | 0.0 | 0.00 | 0.00 | 0.00 | 76 | 1015.9 |
| 20260507020009 | -1 | 248 | 0.0 | 0.0 | 0.00 | 0.00 | 0.00 | 76 | 1015.8 |
| 20260507015306 | -1 | 248 | 0.0 | 0.0 | 0.00 | 0.00 | 0.00 | 76 | 1015.8 |
| 20260507014604 | -1 | 248 | 0.0 | 0.0 | 0.00 | 0.00 | 0.00 | 76 | 1015.8 |
| 20260507013901 | -1 | 248 | 0.0 | 0.0 | 0.00 | 0.00 | 0.00 | 75 | 1015.8 |
| 20260507013211 | -1 | 248 | 0.0 | 0.0 | 0.00 | 0.00 | 0.00 | 75 | 1015.7 |
| 20260507012509 | -1 | 248 | 0.0 | 0.0 | 0.00 | 0.00 | 0.00 | 75 | 1015.8 |
| 20260507011807 | -1 | 248 | 0.0 | 0.0 | 0.00 | 0.00 | 0.00 | 75 | 1015.7 |
| 20260507011105 | -1 | 248 | 0.0 | 0.0 | 0.00 | 0.00 | 0.00 | 75 | 1015.7 |
| 20260507010403 | -1 | 248 | 0.0 | 0.0 | 0.00 | 0.00 | 0.00 | 75 | 1015.6 |
| 20260507005702 | -1 | 248 | 0.0 | 0.0 | 0.00 | 0.00 | 0.00 | 76 | 1015.7 |
| 20260507005011 | -1 | 248 | 0.0 | 0.0 | 0.00 | 0.00 | 0.00 | 77 | 1015.8 |
| 20260507004309 | -1 | 248 | 0.0 | 0.0 | 0.00 | 0.00 | 0.00 | 77 | 1015.7 |
| 20260507003606 | -1 | 248 | 0.0 | 1.6 | 0.00 | 0.00 | 0.00 | 77 | 1015.7 |
| 20260507002903 | -1 | 248 | 0.0 | 0.0 | 0.00 | 0.00 | 0.00 | 78 | 1015.8 |
| 20260507002201 | -1 | 248 | 0.0 | 0.0 | 0.00 | 0.00 | 0.00 | 79 | 1015.7 |
| 20260507001511 | 0 | 248 | 0.0 | 0.0 | 0.00 | 0.00 | 0.00 | 79 | 1015.6 |
| 20260507000808 | -1 | 248 | 0.0 | 0.0 | 0.00 | 0.00 | 0.00 | 81 | 1015.6 |
| 20260507000107 | -1 | 248 | 0.0 | 0.0 | 0.00 | 0.00 | 0.00 | 82 | 1015.5 |
| 20260506235405 | -1 | 248 | 0.0 | 0.0 | 0.00 | 0.00 | 0.00 | 83 | 1015.5 |
| 20260506234703 | -1 | 248 | 0.0 | 0.0 | 0.00 | 0.00 | 0.00 | 83 | 1015.5 |
| 20260506234013 | 0 | 248 | 0.0 | 0.0 | 0.00 | 0.00 | 0.00 | 83 | 1015.5 |
| 20260506233312 | 0 | 248 | 0.0 | 0.0 | 0.00 | 0.00 | 0.00 | 83 | 1015.4 |
| 20260506232610 | 0 | 248 | 0.0 | 0.0 | 0.00 | 0.00 | 0.00 | 83 | 1015.4 |
| 20260506231908 | 0 | 248 | 0.0 | 0.0 | 0.00 | 0.00 | 0.00 | 83 | 1015.4 |
| 20260506231206 | 0 | 248 | 0.0 | 1.6 | 0.00 | 0.00 | 0.00 | 82 | 1015.4 |
| 20260506230503 | 0 | 248 | 0.0 | 0.0 | 0.00 | 0.00 | 0.00 | 82 | 1015.3 |
| 20260506225803 | 0 | 248 | 0.0 | 0.0 | 0.00 | 0.00 | 0.00 | 82 | 1015.4 |
| 20260506225102 | 0 | 248 | 0.0 | 0.0 | 0.00 | 0.00 | 0.00 | 80 | 1015.4 |
| 20260506224413 | 0 | 248 | 0.0 | 0.0 | 0.00 | 0.00 | 0.00 | 79 | 1015.4 |
| 20260506223712 | 0 | 248 | 0.0 | 0.0 | 0.00 | 0.00 | 0.00 | 78 | 1015.5 |
| 20260506223010 | 0 | 248 | 0.0 | 0.0 | 0.00 | 0.00 | 0.00 | 77 | 1015.5 |
| 20260506222306 | 0 | 248 | 0.0 | 0.0 | 0.00 | 0.00 | 0.00 | 77 | 1015.4 |
| 20260506221605 | 0 | 248 | 0.0 | 0.0 | 0.00 | 0.00 | 0.00 | 77 | 1015.3 |
| 20260506220901 | 0 | 248 | 0.0 | 0.0 | 0.00 | 0.00 | 0.00 | 76 | 1015.2 |
| 20260506220211 | 1 | 248 | 0.0 | 0.0 | 0.00 | 0.00 | 0.00 | 74 | 1015.0 |
| 20260506215509 | 1 | 248 | 0.0 | 0.0 | 0.00 | 0.00 | 0.00 | 74 | 1015.0 |
| 20260506214807 | 0 | 248 | 0.0 | 0.0 | 0.00 | 0.00 | 0.00 | 72 | 1014.9 |
| 20260506214105 | 0 | 248 | 0.0 | 0.0 | 0.00 | 0.00 | 0.00 | 71 | 1014.8 |
| 20260506213401 | 0 | 248 | 0.0 | 0.0 | 0.00 | 0.00 | 0.00 | 69 | 1014.8 |
| 20260506212712 | 0 | 248 | 0.0 | 0.0 | 0.00 | 0.00 | 0.00 | 69 | 1014.8 |
| 20260506212009 | 0 | 248 | 0.0 | 0.0 | 0.00 | 0.00 | 0.00 | 69 | 1014.8 |
| 20260506211306 | 0 | 248 | 0.0 | 0.0 | 0.00 | 0.00 | 0.00 | 69 | 1014.7 |
| 20260506210604 | 0 | 248 | 0.0 | 0.0 | 0.00 | 0.00 | 0.00 | 69 | 1014.6 |
| 20260506205903 | 1 | 248 | 0.0 | 0.0 | 0.00 | 0.00 | 0.00 | 68 | 1014.6 |
| 20260506205202 | 1 | 248 | 0.0 | 0.0 | 0.00 | 0.00 | 0.00 | 68 | 1014.5 |
| 20260506204512 | 1 | 248 | 0.0 | 0.0 | 0.00 | 0.00 | 0.00 | 68 | 1014.6 |
| 20260506203811 | 1 | 248 | 0.0 | 0.0 | 0.00 | 0.00 | 0.00 | 66 | 1014.6 |
| 20260506203110 | 1 | 248 | 0.0 | 0.0 | 0.00 | 0.00 | 0.00 | 65 | 1014.5 |
| 20260506202408 | 1 | 248 | 0.0 | 0.0 | 0.00 | 0.00 | 0.00 | 63 | 1014.5 |
| 20260506201705 | 1 | 248 | 0.0 | 0.0 | 0.00 | 0.00 | 0.00 | 63 | 1014.6 |
| 20260506201003 | 1 | 248 | 0.0 | 0.0 | 0.00 | 0.00 | 0.00 | 62 | 1014.4 |
| 20260506200312 | 1 | 248 | 0.0 | 0.0 | 0.00 | 0.00 | 0.00 | 60 | 1014.3 |
| 20260506195611 | 1 | 248 | 0.0 | 0.0 | 0.00 | 0.00 | 0.00 | 60 | 1014.4 |
| 20260506194909 | 1 | 248 | 0.0 | 0.0 | 0.00 | 0.00 | 0.00 | 59 | 1014.2 |
| 20260506194208 | 2 | 248 | 0.0 | 0.0 | 0.00 | 0.00 | 0.00 | 59 | 1014.3 |
| 20260506193507 | 2 | 248 | 0.0 | 0.0 | 0.00 | 0.00 | 0.00 | 58 | 1014.1 |
| 20260506192806 | 2 | 248 | 0.0 | 0.0 | 0.00 | 0.00 | 0.00 | 57 | 1014.2 |
| 20260506192105 | 2 | 248 | 0.0 | 0.0 | 0.00 | 0.00 | 0.00 | 56 | 1014.2 |
| 20260506191404 | 2 | 248 | 0.0 | 0.0 | 0.00 | 0.00 | 0.00 | 54 | 1014.1 |
| 20260506190702 | 2 | 248 | 0.0 | 0.0 | 0.00 | 0.00 | 0.00 | 52 | 1014.1 |
| 20260506190001 | 2 | 248 | 0.0 | 0.0 | 0.00 | 0.00 | 0.00 | 50 | 1014.1 |
| 20260506185312 | 3 | 248 | 0.0 | 0.0 | 0.00 | 0.00 | 0.00 | 48 | 1014.1 |
| 20260506184610 | 3 | 248 | 0.0 | 0.0 | 0.00 | 0.00 | 0.00 | 47 | 1014.1 |
| 20260506183908 | 3 | 248 | 0.0 | 0.0 | 0.00 | 0.00 | 0.00 | 44 | 1014.0 |
| 20260506183205 | 3 | 248 | 0.0 | 0.0 | 0.00 | 0.00 | 0.00 | 42 | 1014.0 |
| 20260506182504 | 3 | 248 | 1.6 | 1.6 | 0.00 | 0.00 | 0.00 | 42 | 1014.0 |
| 20260506181802 | 4 | 248 | 0.0 | 0.0 | 0.00 | 0.00 | 0.00 | 40 | 1013.9 |
| 20260506181112 | 5 | 248 | 0.0 | 0.0 | 0.00 | 0.00 | 0.00 | 39 | 1013.9 |
| 20260506180411 | 5 | 248 | 0.0 | 0.0 | 0.00 | 0.00 | 0.00 | 39 | 1013.9 |
| 20260506175708 | 5 | 248 | 0.0 | 0.0 | 0.00 | 0.00 | 0.00 | 38 | 1013.7 |
| 20260506175006 | 6 | 248 | 0.0 | 0.0 | 0.00 | 0.00 | 0.00 | 38 | 1013.7 |
| 20260506174305 | 6 | 248 | 0.0 | 0.0 | 0.00 | 0.00 | 0.00 | 37 | 1013.7 |
| 20260506173604 | 7 | 248 | 0.0 | 0.0 | 0.00 | 0.00 | 0.00 | 37 | 1013.8 |
| 20260506172902 | 7 | 248 | 0.0 | 0.0 | 0.00 | 0.00 | 0.00 | 37 | 1013.7 |
| 20260506172210 | 7 | 248 | 1.6 | 1.6 | 0.00 | 0.00 | 0.00 | 36 | 1013.7 |
| 20260506171509 | 8 | 248 | 1.6 | 4.8 | 0.00 | 0.00 | 0.00 | 36 | 1013.7 |
| 20260506170807 | 8 | 248 | 1.6 | 3.2 | 0.00 | 0.00 | 0.00 | 36 | 1013.6 |
| 20260506170106 | 8 | 248 | 0.0 | 0.0 | 0.00 | 0.00 | 0.00 | 35 | 1013.5 |
| 20260506165404 | 8 | 248 | 0.0 | 1.6 | 0.00 | 0.00 | 0.00 | 35 | 1013.5 |
| 20260506164701 | 8 | 248 | 1.6 | 3.2 | 0.00 | 0.00 | 0.00 | 35 | 1013.3 |
| 20260506164011 | 8 | 248 | 1.6 | 4.8 | 0.00 | 0.00 | 0.00 | 33 | 1013.4 |
| 20260506163309 | 9 | 248 | 1.6 | 1.6 | 0.00 | 0.00 | 0.00 | 32 | 1013.3 |
| 20260506162606 | 9 | 248 | 1.6 | 3.2 | 0.00 | 0.00 | 0.00 | 32 | 1013.2 |
| 20260506161904 | 9 | 265 | 3.2 | 4.8 | 0.00 | 0.00 | 0.00 | 32 | 1013.2 |
| 20260506161202 | 10 | 258 | 1.6 | 1.6 | 0.00 | 0.00 | 0.00 | 32 | 1013.2 |
| 20260506160512 | 10 | 258 | 3.2 | 3.2 | 0.00 | 0.00 | 0.00 | 32 | 1013.1 |
| 20260506155810 | 10 | 325 | 1.6 | 3.2 | 0.00 | 0.00 | 0.00 | 32 | 1013.0 |
| 20260506155109 | 10 | 221 | 8.0 | 9.7 | 0.00 | 0.00 | 0.00 | 32 | 1013.0 |
| 20260506154407 | 10 | 248 | 1.6 | 4.8 | 0.00 | 0.00 | 0.00 | 32 | 1013.0 |
| 20260506153703 | 10 | 261 | 3.2 | 8.0 | 0.00 | 0.00 | 0.00 | 31 | 1013.1 |
| 20260506153001 | 10 | 282 | 8.0 | 9.7 | 0.00 | 0.00 | 0.00 | 31 | 1013.2 |
| 20260506152312 | 10 | 302 | 8.0 | 8.0 | 0.00 | 0.00 | 0.00 | 32 | 1013.2 |
| 20260506151609 | 10 | 248 | 1.6 | 3.2 | 0.00 | 0.00 | 0.00 | 32 | 1013.1 |
| 20260506150908 | 10 | 266 | 1.6 | 3.2 | 0.00 | 0.00 | 0.00 | 31 | 1013.1 |
| 20260506150206 | 10 | 342 | 4.8 | 8.0 | 0.00 | 0.00 | 0.00 | 30 | 1013.2 |
| 20260506145504 | 11 | 281 | 1.6 | 4.8 | 0.00 | 0.00 | 0.00 | 30 | 1013.1 |
| 20260506144802 | 13 | 304 | 8.0 | 16.1 | 0.00 | 0.00 | 0.00 | 28 | 1013.1 |
| 20260506144111 | 15 | 308 | 1.6 | 4.8 | 0.00 | 0.00 | 0.00 | 28 | 1013.1 |
| 20260506143409 | 13 | 305 | 3.2 | 3.2 | 0.00 | 0.00 | 0.00 | 28 | 1013.0 |
| 20260506142709 | 13 | 252 | 1.6 | 9.7 | 0.00 | 0.00 | 0.00 | 28 | 1013.1 |
| 20260506142005 | 15 | 238 | 1.6 | 3.2 | 0.00 | 0.00 | 0.00 | 27 | 1013.0 |
| 20260506141304 | 20 | 338 | 3.2 | 9.7 | 0.00 | 0.00 | 0.00 | 25 | 1012.9 |
| 20260506140603 | 19 | 254 | 1.6 | 4.8 | 0.00 | 0.00 | 0.00 | 26 | 1012.9 |
| 20260506135901 | 18 | 269 | 4.8 | 8.0 | 0.00 | 0.00 | 0.00 | 25 | 1012.7 |
| 20260506135211 | 19 | 13 | 9.7 | 11.3 | 0.00 | 0.00 | 0.00 | 26 | 1012.8 |
| 20260506134508 | 16 | 334 | 3.2 | 11.3 | 0.00 | 0.00 | 0.00 | 29 | 1012.7 |
| 20260506133806 | 12 | 19 | 4.8 | 9.7 | 0.00 | 0.00 | 0.00 | 31 | 1012.8 |
| 20260506133104 | 12 | 304 | 8.0 | 8.0 | 0.00 | 0.00 | 0.00 | 30 | 1012.8 |
| 20260506132402 | 11 | 251 | 3.2 | 3.2 | 0.00 | 0.00 | 0.00 | 31 | 1012.9 |
| 20260506131712 | 11 | 308 | 4.8 | 9.7 | 0.00 | 0.00 | 0.00 | 33 | 1012.8 |
| 20260506131009 | 11 | 248 | 4.8 | 9.7 | 0.00 | 0.00 | 0.00 | 31 | 1012.7 |
| 20260506130307 | 12 | 334 | 1.6 | 4.8 | 0.00 | 0.00 | 0.00 | 31 | 1012.7 |
| 20260506125603 | 13 | 265 | 8.0 | 14.5 | 0.00 | 0.00 | 0.00 | 29 | 1012.8 |
| 20260506124913 | 16 | 265 | 8.0 | 12.9 | 0.00 | 0.00 | 0.00 | 27 | 1012.7 |
| 20260506124211 | 15 | 14 | 3.2 | 3.2 | 0.00 | 0.00 | 0.00 | 29 | 1012.8 |
| 20260506123508 | 16 | 321 | 3.2 | 14.5 | 0.00 | 0.00 | 0.00 | 27 | 1012.9 |
| 20260506122806 | 18 | 20 | 4.8 | 12.9 | 0.00 | 0.00 | 0.00 | 27 | 1012.9 |
| 20260506122104 | 19 | 250 | 8.0 | 19.3 | 0.00 | 0.00 | 0.00 | 27 | 1012.8 |
| 20260506121413 | 18 | 314 | 4.8 | 4.8 | 0.00 | 0.00 | 0.00 | 27 | 1012.8 |
| 20260506120711 | 17 | 13 | 8.0 | 14.5 | 0.00 | 0.00 | 0.00 | 28 | 1012.8 |
| 20260506120008 | 17 | 279 | 12.9 | 16.1 | 0.00 | 0.00 | 0.00 | 27 | 1012.9 |
| 20260506115307 | 17 | 304 | 4.8 | 19.3 | 0.00 | 0.00 | 0.00 | 27 | 1012.9 |
| 20260506114603 | 17 | 267 | 3.2 | 9.7 | 0.00 | 0.00 | 0.00 | 28 | 1012.8 |
| 20260506113912 | 17 | 276 | 3.2 | 12.9 | 0.00 | 0.00 | 0.00 | 28 | 1012.7 |
| 20260506113210 | 16 | 274 | 9.7 | 16.1 | 0.00 | 0.00 | 0.00 | 28 | 1012.7 |
| 20260506112507 | 15 | 3 | 9.7 | 27.4 | 0.00 | 0.00 | 0.00 | 26 | 1012.8 |
| 20260506111805 | 16 | 255 | 16.1 | 32.2 | 0.00 | 0.00 | 0.00 | 25 | 1012.6 |
| 20260506111103 | 16 | 249 | 9.7 | 14.5 | 0.00 | 0.00 | 0.00 | 28 | 1012.5 |
| 20260506110412 | 15 | 248 | 4.8 | 4.8 | 0.00 | 0.00 | 0.00 | 29 | 1012.4 |
| 20260506105711 | 13 | 298 | 3.2 | 3.2 | 0.00 | 0.00 | 0.00 | 31 | 1012.3 |
| 20260506105008 | 15 | 256 | 12.9 | 27.4 | 0.00 | 0.00 | 0.00 | 33 | 1012.6 |
| 20260506104306 | 14 | 356 | 11.3 | 16.1 | 0.00 | 0.00 | 0.00 | 33 | 1012.6 |
| 20260506103605 | 13 | 306 | 4.8 | 16.1 | 0.00 | 0.00 | 0.00 | 35 | 1012.4 |
| 20260506102902 | 13 | 325 | 4.8 | 12.9 | 0.00 | 0.00 | 0.00 | 33 | 1012.3 |
| 20260506102212 | 12 | 342 | 4.8 | 11.3 | 0.00 | 0.00 | 0.00 | 35 | 1012.3 |
| 20260506101509 | 11 | 255 | 1.6 | 3.2 | 0.00 | 0.00 | 0.00 | 36 | 1012.2 |
| 20260506100807 | 11 | 226 | 9.7 | 16.1 | 0.00 | 0.00 | 0.00 | 35 | 1012.1 |
| 20260506100105 | 12 | 315 | 16.1 | 22.5 | 0.00 | 0.00 | 0.00 | 37 | 1012.4 |
| 20260506095402 | 11 | 296 | 3.2 | 4.8 | 0.00 | 0.00 | 0.00 | 40 | 1012.3 |
| 20260506094712 | 10 | 255 | 4.8 | 11.3 | 0.00 | 0.00 | 0.00 | 38 | 1012.1 |
| 20260506094010 | 11 | 7 | 3.2 | 11.3 | 0.00 | 0.00 | 0.00 | 37 | 1012.1 |
| 20260506093307 | 11 | 270 | 9.7 | 19.3 | 0.00 | 0.00 | 0.00 | 38 | 1012.1 |
| 20260506092605 | 12 | 315 | 9.7 | 11.3 | 0.00 | 0.00 | 0.00 | 38 | 1012.1 |
| 20260506091901 | 12 | 334 | 8.0 | 8.0 | 0.00 | 0.00 | 0.00 | 38 | 1011.8 |
| 20260506091212 | 12 | 250 | 4.8 | 11.3 | 0.00 | 0.00 | 0.00 | 38 | 1011.9 |
| 20260506090511 | 13 | 251 | 4.8 | 9.7 | 0.00 | 0.00 | 0.00 | 38 | 1012.0 |
| 20260506085810 | 13 | 226 | 4.8 | 8.0 | 0.00 | 0.00 | 0.00 | 39 | 1012.0 |
| 20260506085108 | 12 | 300 | 3.2 | 8.0 | 0.00 | 0.00 | 0.00 | 39 | 1011.7 |
| 20260506084405 | 12 | 344 | 3.2 | 11.3 | 0.00 | 0.00 | 0.00 | 41 | 1011.8 |
| 20260506083702 | 11 | 248 | 4.8 | 4.8 | 0.00 | 0.00 | 0.00 | 38 | 1011.7 |
| 20260506083012 | 12 | 248 | 14.5 | 11.3 | 0.00 | 0.00 | 0.00 | 36 | 1011.5 |
| 20260506082309 | 13 | 351 | 9.7 | 22.5 | 0.00 | 0.00 | 0.00 | 35 | 1011.6 |
| 20260506081606 | 14 | 5 | 4.8 | 20.9 | 0.00 | 0.00 | 0.00 | 39 | 1011.6 |
| 20260506080904 | 13 | 253 | 3.2 | 8.0 | 0.00 | 0.00 | 0.00 | 39 | 1011.6 |
| 20260506080202 | 13 | 333 | 8.0 | 11.3 | 0.00 | 0.00 | 0.00 | 38 | 1011.5 |
| 20260506073404 | 12 | 259 | 11.3 | 25.7 | 0.00 | 0.00 | 0.00 | 40 | 1011.3 |
| 20260506072702 | 12 | 257 | 11.3 | 14.5 | 0.00 | 0.00 | 0.00 | 42 | 1011.3 |
| 20260506072012 | 12 | 275 | 3.2 | 9.7 | 0.00 | 0.00 | 0.00 | 45 | 1011.2 |
| 20260506071309 | 12 | 257 | 14.5 | 14.5 | 0.00 | 0.00 | 0.00 | 43 | 1011.2 |
| 20260506070607 | 13 | 311 | 8.0 | 12.9 | 0.00 | 0.00 | 0.00 | 46 | 1011.2 |
| 20260506062405 | 10 | 209 | 3.2 | 3.2 | 0.00 | 0.00 | 0.00 | 53 | 1010.9 |
| 20260506061702 | 11 | 337 | 8.0 | 19.3 | 0.00 | 0.00 | 0.00 | 52 | 1010.8 |
| 20260506061012 | 11 | 253 | 3.2 | 4.8 | 0.00 | 0.00 | 0.00 | 58 | 1010.7 |
| 20260506060309 | 11 | 25 | 3.2 | 3.2 | 0.00 | 0.00 | 0.00 | 59 | 1010.6 |
| 20260506051405 | 5 | 300 | 3.2 | 9.7 | 0.00 | 0.00 | 0.00 | 71 | 1010.1 |
| 20260506050702 | 4 | 245 | 1.6 | 4.8 | 0.00 | 0.00 | 0.00 | 73 | 1010.2 |
| 20260506044609 | 3 | 118 | 4.8 | 4.8 | 0.00 | 0.00 | 0.00 | 77 | 1009.9 |
| 20260506043907 | 2 | 49 | 3.2 | 4.8 | 0.00 | 0.00 | 0.00 | 77 | 1009.8 |
| 20260506043203 | 2 | 297 | 3.2 | 9.7 | 0.00 | 0.00 | 0.00 | 77 | 1009.8 |
| 20260506042501 | 2 | 182 | 8.0 | 8.0 | 0.00 | 0.00 | 0.00 | 77 | 1009.7 |
| 20260506041811 | 2 | 116 | 3.2 | 9.7 | 0.00 | 0.00 | 0.00 | 79 | 1009.6 |
| 20260506041107 | 2 | 262 | 3.2 | 8.0 | 0.00 | 0.00 | 0.00 | 81 | 1009.6 |
| 20260506040405 | 2 | 22 | 1.6 | 0.0 | 0.00 | 0.00 | 0.00 | 82 | 1009.7 |
| 20260506035704 | 1 | 22 | 0.0 | 0.0 | 0.00 | 0.00 | 0.00 | 84 | 1009.5 |